Location: Unspecified
(33.2407°S, 0.0000°E)
Time: 17:45:55
(UTC+00:00)

Envisat - Pass Details

Date: 22 May 2019
Orbit: 764 x 766 km, 98.1° (Epoch: 24 June)

Event Time Altitude Azimuth Distance (km) Brightness Sun altitude
Rises 05:02:20 0° 68° (ENE) 3,231 7.7 -22.0°
Reaches altitude 10° 05:06:52 10° 106° (ESE) 2,318 6.4 -21.1°
Maximum altitude 05:07:48 11° 117° (ESE) 2,287 6.2 -20.9°
Drops below altitude 10° 05:08:44 10° 127° (SE) 2,324 6.0 -20.7°
Sets 05:13:18 0° 165° (SSE) 3,263 6.3 -19.8°
